Location: Gisborne
(38.6530°S, 178.0040°E)
Time: 10:41:06
(UTC+13:00)

Nadezhda 1 Rocket - Pass Details

Date: 24 January 2019
Orbit: 942 x 1004 km, 83.0° (Epoch: 16 February)

Event Time Altitude Azimuth Distance (km) Brightness Sun altitude
Rises 22:11:38 0° 181° (S) 3,669 7.7 -17.2°
Reaches altitude 10° 22:14:19 10° 174° (S) 2,709 6.8 -17.6°
Maximum altitude 22:20:10 43° 102° (ESE) 1,306 4.4 -18.4°
Enters shadow 22:22:30 31° 55° (NE) 1,605 4.6 -18.7°
